Погода в Кохтла-Ярве

Эстония     59°23′47″N   27°15′21″E
темп.,
°C
ветер,
м/с
пор.,
м/с
влажн.,
%
обл.,
%
осадки,
мм/ч
давл.,
гПа
погр.,
м
18 мая, вт
вт1800:00+10св11100100 7.9 100627
03:00+8зсз34100100 10.8 100655
06:00+8сз5799100 0.0 100598
09:00+8сз4598100 0.1 1006128
12:00+8ссз45100100 1.6 100693
15:00+9ссз4599100 2.0 100575
18:00+9с46100100 0.3 100471
21:00+10всв34100100 1.0 100363
19 мая, ср
ср1900:00+11в11100100 2.4 100229
03:00+11всв22100100 3.5 100131
06:00+10юв00100100 0.9 99910
09:00+11всв34100100 1.4 99859
12:00+13юв6109899 1.1 997249
15:00+13ююв589597 1.3 998212
18:00+12ююз579383 0.1 1000156
21:00+11юз359699 0.1 1002143
20 мая, чт
чт2000:00+10зсз2399100 0.4 100358
03:00+8зсз3599100 0.7 100494
06:00+8зсз4698100 0.4 1005129
09:00+8сз4697100 0.6 1006152
12:00+8сз5795100 0.1 1007191
15:00+8сз6995100 2.0 1007264
18:00+8сз71291100 0.9 1006287
21:00+8зсз81288100 1.0 1005226
21 мая, пт
пт2100:00+9з91477100 0.3 1005303
03:00+8з81477100 0.3 1004334
06:00+7зюз7137912 0.0 1004310
09:00+10юз711710 0.0 1005351
12:00+12зюз68625 0.0 1006684
15:00+10з61081100 1.3 1007448
18:00+11зюз486658 0.4 1008568
21:00+8з257854 0.4 1009186
22 мая, сб
сб2200:00+7юз612790 0.0 1010297
03:00+7ююз61288100 0.1 1010280
06:00+8ююз61086100 0.2 1009240
09:00+10ю71185100 0.3 1010325
12:00+11ю91476100 0.1 1008417
15:00+12ю91580100 1.2 1008495
18:00+12ю71182100 0.1 1007316
21:00+11ю61288100 0.6 1007284